Year,Month,Day,Hour,Minute,Value (Times are PST for temperature in C)
2016,04,28,00,00,2.60
2016,04,28,00,01,2.70
2016,04,28,00,02,2.70
2016,04,28,00,03,2.70
2016,04,28,00,04,2.80
2016,04,28,00,05,2.80
2016,04,28,00,06,2.80
2016,04,28,00,07,2.90
2016,04,28,00,08,2.90
2016,04,28,00,09,2.80
2016,04,28,00,10,2.80
2016,04,28,00,11,2.80
2016,04,28,00,12,2.90
2016,04,28,00,13,2.90
2016,04,28,00,14,2.90
2016,04,28,00,15,2.90
2016,04,28,00,16,2.90
2016,04,28,00,17,3.00
2016,04,28,00,18,3.00
2016,04,28,00,19,3.10
2016,04,28,00,20,3.10
2016,04,28,00,21,3.10
2016,04,28,00,22,3.10
2016,04,28,00,23,3.10
2016,04,28,00,24,3.10
2016,04,28,00,25,3.20
2016,04,28,00,26,3.20
2016,04,28,00,27,3.20
2016,04,28,00,28,3.20
2016,04,28,00,29,3.20
2016,04,28,00,30,3.20
2016,04,28,00,31,3.20
2016,04,28,00,32,3.20
2016,04,28,00,33,3.20
2016,04,28,00,34,3.20
2016,04,28,00,35,3.30
2016,04,28,00,36,3.30
2016,04,28,00,37,3.30
2016,04,28,00,38,3.30
2016,04,28,00,39,3.40
2016,04,28,00,40,3.40
2016,04,28,00,41,3.40
2016,04,28,00,42,3.50
2016,04,28,00,43,3.50
2016,04,28,00,44,3.60
2016,04,28,00,45,3.70
2016,04,28,00,46,3.70
2016,04,28,00,47,3.80
2016,04,28,00,48,3.80
2016,04,28,00,49,3.90
2016,04,28,00,50,3.90
2016,04,28,00,51,4.00
2016,04,28,00,52,4.00
2016,04,28,00,53,4.10
2016,04,28,00,54,4.20
2016,04,28,00,55,4.30
2016,04,28,00,56,4.40
2016,04,28,00,57,4.50
2016,04,28,00,58,4.70
2016,04,28,00,59,4.80
2016,04,28,01,00,5.00
2016,04,28,01,01,5.10
2016,04,28,01,02,5.30
2016,04,28,01,03,5.40
2016,04,28,01,04,5.60
2016,04,28,01,05,5.80
2016,04,28,01,06,5.90
2016,04,28,01,07,6.00
2016,04,28,01,08,6.10
2016,04,28,01,09,6.30
2016,04,28,01,10,6.40
2016,04,28,01,11,6.50
2016,04,28,01,12,6.60
2016,04,28,01,13,6.70
2016,04,28,01,14,6.80
2016,04,28,01,15,6.90
2016,04,28,01,16,7.00
2016,04,28,01,17,7.20
2016,04,28,01,18,7.30
2016,04,28,01,19,7.40
2016,04,28,01,20,7.50
2016,04,28,01,21,7.60
2016,04,28,01,22,7.60
2016,04,28,01,23,7.70
2016,04,28,01,24,7.70
2016,04,28,01,25,7.80
2016,04,28,01,26,7.80
2016,04,28,01,27,7.90
2016,04,28,01,28,8.00
2016,04,28,01,29,8.00
2016,04,28,01,30,8.10
2016,04,28,01,31,8.20
2016,04,28,01,32,8.20
2016,04,28,01,33,8.30
2016,04,28,01,34,8.40
2016,04,28,01,35,8.40
2016,04,28,01,36,8.50
2016,04,28,01,37,8.60
2016,04,28,01,38,8.60
2016,04,28,01,39,8.70
2016,04,28,01,40,8.80
2016,04,28,01,41,8.90
2016,04,28,01,42,8.90
2016,04,28,01,43,9.00
2016,04,28,01,44,9.00
2016,04,28,01,45,9.10
2016,04,28,01,46,9.10
2016,04,28,01,47,9.20
2016,04,28,01,48,9.20
2016,04,28,01,49,9.20
2016,04,28,01,50,9.30
2016,04,28,01,51,9.30
2016,04,28,01,52,9.40
2016,04,28,01,53,9.40
2016,04,28,01,54,9.50
2016,04,28,01,55,9.60
2016,04,28,01,56,9.70
2016,04,28,01,57,9.70
2016,04,28,01,58,9.80
2016,04,28,01,59,9.80
2016,04,28,02,00,9.90
2016,04,28,02,01,9.90
2016,04,28,02,02,10.00
2016,04,28,02,03,10.00
2016,04,28,02,04,10.10
2016,04,28,02,05,10.20
2016,04,28,02,06,10.20
2016,04,28,02,07,10.30
2016,04,28,02,08,10.30
2016,04,28,02,09,10.40
2016,04,28,02,10,10.40
2016,04,28,02,11,10.50
2016,04,28,02,12,10.50
2016,04,28,02,13,10.50
2016,04,28,02,14,10.50
2016,04,28,02,15,10.60
2016,04,28,02,16,10.60
2016,04,28,02,17,10.60
2016,04,28,02,18,10.70
2016,04,28,02,19,10.70
2016,04,28,02,20,10.70
2016,04,28,02,21,10.70
2016,04,28,02,22,10.70
2016,04,28,02,23,10.80
2016,04,28,02,24,10.90
2016,04,28,02,25,10.90
2016,04,28,02,26,11.00
2016,04,28,02,27,11.10
2016,04,28,02,28,11.10
2016,04,28,02,29,11.20
2016,04,28,02,30,11.20
2016,04,28,02,31,11.30
2016,04,28,02,32,11.30
2016,04,28,02,33,11.40
2016,04,28,02,34,11.40
2016,04,28,02,35,11.50
2016,04,28,02,36,11.50
2016,04,28,02,37,11.60
2016,04,28,02,38,11.60
2016,04,28,02,39,11.70
2016,04,28,02,40,11.70
2016,04,28,02,41,11.80
2016,04,28,02,42,11.90
2016,04,28,02,43,12.00
2016,04,28,02,44,12.10
2016,04,28,02,45,12.20
2016,04,28,02,46,12.30
2016,04,28,02,47,12.40
2016,04,28,02,48,12.50
2016,04,28,02,49,12.60
2016,04,28,02,50,12.70
2016,04,28,02,51,12.70
2016,04,28,02,52,12.70
2016,04,28,02,53,12.80
2016,04,28,02,54,12.80
2016,04,28,02,55,12.90
2016,04,28,02,56,12.90
2016,04,28,02,57,12.90
2016,04,28,02,58,12.90
2016,04,28,02,59,12.90
2016,04,28,03,00,12.80
2016,04,28,03,01,12.80
2016,04,28,03,02,12.80
2016,04,28,03,03,12.70
2016,04,28,03,04,12.70
2016,04,28,03,05,12.70
2016,04,28,03,06,12.70
2016,04,28,03,07,12.70
2016,04,28,03,08,12.70
2016,04,28,03,09,12.70
2016,04,28,03,10,12.80
2016,04,28,03,11,12.80
2016,04,28,03,12,12.80
2016,04,28,03,13,12.90
2016,04,28,03,14,12.90
2016,04,28,03,15,12.90
2016,04,28,03,16,12.90
2016,04,28,03,17,12.90
2016,04,28,03,18,12.90
2016,04,28,03,19,12.90
2016,04,28,03,20,12.90
2016,04,28,03,21,12.90
2016,04,28,03,22,12.90
2016,04,28,03,23,12.90
2016,04,28,03,24,13.00
2016,04,28,03,25,13.00
2016,04,28,03,26,13.00
2016,04,28,03,27,12.90
2016,04,28,03,28,12.90
2016,04,28,03,29,12.90
2016,04,28,03,30,12.90
2016,04,28,03,31,12.90
2016,04,28,03,32,12.90
2016,04,28,03,33,12.90
2016,04,28,03,34,12.90
2016,04,28,03,35,13.00
2016,04,28,03,36,13.00
2016,04,28,03,37,13.10
2016,04,28,03,38,13.10
2016,04,28,03,39,13.20
2016,04,28,03,40,13.20
2016,04,28,03,41,13.20
2016,04,28,03,42,13.30
2016,04,28,03,43,13.30
2016,04,28,03,44,13.20
2016,04,28,03,45,13.20
2016,04,28,03,46,13.10
2016,04,28,03,47,13.00
2016,04,28,03,48,13.00
2016,04,28,03,49,13.00
2016,04,28,03,50,13.10
2016,04,28,03,51,13.20
2016,04,28,03,52,13.30
2016,04,28,03,53,13.40
2016,04,28,03,54,13.50
2016,04,28,03,55,13.60
2016,04,28,03,56,13.70
2016,04,28,03,57,13.70
2016,04,28,03,58,13.70
2016,04,28,03,59,13.60
2016,04,28,04,00,13.60
2016,04,28,04,01,13.60
2016,04,28,04,02,13.60
2016,04,28,04,03,13.60
2016,04,28,04,04,13.60
2016,04,28,04,05,13.60
2016,04,28,04,06,13.50
2016,04,28,04,07,13.50
2016,04,28,04,08,13.50
2016,04,28,04,09,13.40
2016,04,28,04,10,13.40
2016,04,28,04,11,13.40
2016,04,28,04,12,13.30
2016,04,28,04,13,13.30
2016,04,28,04,14,13.30
2016,04,28,04,15,13.20
2016,04,28,04,16,13.20
2016,04,28,04,17,13.10
2016,04,28,04,18,13.10
2016,04,28,04,19,13.10
2016,04,28,04,20,13.10
2016,04,28,04,21,13.10
2016,04,28,04,22,13.20
2016,04,28,04,23,13.20
2016,04,28,04,24,13.20
2016,04,28,04,25,13.20
2016,04,28,04,26,13.20
2016,04,28,04,27,13.10
2016,04,28,04,28,13.10
2016,04,28,04,29,13.10
2016,04,28,04,30,13.00
2016,04,28,04,31,13.00
2016,04,28,04,32,13.00
2016,04,28,04,33,13.00
2016,04,28,04,34,13.00
2016,04,28,04,35,13.00
2016,04,28,04,36,13.00
2016,04,28,04,37,13.00
2016,04,28,04,38,13.00
2016,04,28,04,39,13.10
2016,04,28,04,40,13.10
2016,04,28,04,41,13.20
2016,04,28,04,42,13.30
2016,04,28,04,43,13.40
2016,04,28,04,44,13.50
2016,04,28,04,45,13.60
2016,04,28,04,46,13.70
2016,04,28,04,47,13.80
2016,04,28,04,48,13.80
2016,04,28,04,49,14.00
2016,04,28,04,50,14.10
2016,04,28,04,51,14.10
2016,04,28,04,52,14.20
2016,04,28,04,53,14.30
2016,04,28,04,54,14.40
2016,04,28,04,55,14.50
2016,04,28,04,56,14.60
2016,04,28,04,57,14.70
2016,04,28,04,58,14.70
2016,04,28,04,59,14.70
2016,04,28,05,00,14.70
2016,04,28,05,01,14.70
2016,04,28,05,02,14.70
2016,04,28,05,03,14.70
2016,04,28,05,04,14.80
2016,04,28,05,05,14.80
2016,04,28,05,06,14.90
2016,04,28,05,07,15.00
2016,04,28,05,08,15.10
2016,04,28,05,09,15.20
2016,04,28,05,10,15.30
2016,04,28,05,11,15.40
2016,04,28,05,12,15.50
2016,04,28,05,13,15.50
2016,04,28,05,14,15.60
2016,04,28,05,15,15.60
2016,04,28,05,16,15.60
2016,04,28,05,17,15.60
2016,04,28,05,18,15.70
2016,04,28,05,19,15.80
2016,04,28,05,20,15.80
2016,04,28,05,21,15.80
2016,04,28,05,22,15.80
2016,04,28,05,23,15.80
2016,04,28,05,24,15.80
2016,04,28,05,25,15.80
2016,04,28,05,26,15.70
2016,04,28,05,27,15.70
2016,04,28,05,28,15.70
2016,04,28,05,29,15.70
2016,04,28,05,30,15.80
2016,04,28,05,31,15.80
2016,04,28,05,32,15.80
2016,04,28,05,33,15.90
2016,04,28,05,34,15.90
2016,04,28,05,35,15.90
2016,04,28,05,36,16.00
2016,04,28,05,37,16.00
2016,04,28,05,38,16.10
2016,04,28,05,39,16.20
2016,04,28,05,40,16.20
2016,04,28,05,41,16.20
2016,04,28,05,42,16.20
2016,04,28,05,43,16.30
2016,04,28,05,44,16.30
2016,04,28,05,45,16.30
2016,04,28,05,46,16.30
2016,04,28,05,47,16.30
2016,04,28,05,48,16.30
2016,04,28,05,49,16.30
2016,04,28,05,50,16.20
2016,04,28,05,51,16.20
2016,04,28,05,52,16.30
2016,04,28,05,53,16.30
2016,04,28,05,54,16.40
2016,04,28,05,55,16.40
2016,04,28,05,56,16.50
2016,04,28,05,57,16.50
2016,04,28,05,58,16.60
2016,04,28,05,59,16.50
2016,04,28,06,00,16.50
2016,04,28,06,01,16.60
2016,04,28,06,02,16.60
2016,04,28,06,03,16.60
2016,04,28,06,04,16.60
2016,04,28,06,05,16.50
2016,04,28,06,06,16.50
2016,04,28,06,07,16.50
2016,04,28,06,08,16.60
2016,04,28,06,09,16.60
2016,04,28,06,10,16.50
2016,04,28,06,11,16.40
2016,04,28,06,12,16.30
2016,04,28,06,13,16.10
2016,04,28,06,14,16.00
2016,04,28,06,15,16.00
2016,04,28,06,16,16.00
2016,04,28,06,17,16.10
2016,04,28,06,18,16.20
2016,04,28,06,19,16.20
2016,04,28,06,20,16.30
2016,04,28,06,21,16.40
2016,04,28,06,22,16.50
2016,04,28,06,23,16.50
2016,04,28,06,24,16.50
2016,04,28,06,25,16.60
2016,04,28,06,26,16.60
2016,04,28,06,27,16.60
2016,04,28,06,28,16.60
2016,04,28,06,29,16.60
2016,04,28,06,30,16.70
2016,04,28,06,31,16.80
2016,04,28,06,32,16.80
2016,04,28,06,33,16.80
2016,04,28,06,34,16.90
2016,04,28,06,35,16.80
2016,04,28,06,36,16.90
2016,04,28,06,37,16.90
2016,04,28,06,38,16.80
2016,04,28,06,39,16.90
2016,04,28,06,40,16.80
2016,04,28,06,41,16.80
2016,04,28,06,42,16.80
2016,04,28,06,43,16.80
2016,04,28,06,44,16.80
2016,04,28,06,45,16.80
2016,04,28,06,46,16.80
2016,04,28,06,47,16.80
2016,04,28,06,48,16.80
2016,04,28,06,49,16.80
2016,04,28,06,50,16.80
2016,04,28,06,51,16.80
2016,04,28,06,52,16.80
2016,04,28,06,53,16.80
2016,04,28,06,54,16.90
2016,04,28,06,55,17.00
2016,04,28,06,56,17.00
2016,04,28,06,57,17.10
2016,04,28,06,58,17.20
2016,04,28,06,59,17.30
2016,04,28,07,00,17.40
2016,04,28,07,01,17.40
2016,04,28,07,02,17.50
2016,04,28,07,03,17.40
2016,04,28,07,04,17.40
2016,04,28,07,05,17.40
2016,04,28,07,06,17.40
2016,04,28,07,07,17.40
2016,04,28,07,08,17.30
2016,04,28,07,09,17.20
2016,04,28,07,10,17.10
2016,04,28,07,11,17.00
2016,04,28,07,12,17.00
2016,04,28,07,13,17.00
2016,04,28,07,14,17.10
2016,04,28,07,15,17.20
2016,04,28,07,16,17.30
2016,04,28,07,17,17.30
2016,04,28,07,18,17.40
2016,04,28,07,19,17.50
2016,04,28,07,20,17.50
2016,04,28,07,21,17.50
2016,04,28,07,22,17.50
2016,04,28,07,23,17.50
2016,04,28,07,24,17.40
2016,04,28,07,25,17.40
2016,04,28,07,26,17.40
2016,04,28,07,27,17.30
2016,04,28,07,28,17.30
2016,04,28,07,29,17.20
2016,04,28,07,30,17.10
2016,04,28,07,31,17.10
2016,04,28,07,32,17.10
2016,04,28,07,33,17.00
2016,04,28,07,34,17.00
2016,04,28,07,35,17.00
2016,04,28,07,36,16.90
2016,04,28,07,37,16.90
2016,04,28,07,38,16.90
2016,04,28,07,39,16.80
2016,04,28,07,40,16.80
2016,04,28,07,41,16.80
2016,04,28,07,42,16.80
2016,04,28,07,43,16.80
2016,04,28,07,44,16.80
2016,04,28,07,45,16.80
2016,04,28,07,46,16.70
2016,04,28,07,47,16.70
2016,04,28,07,48,16.70
2016,04,28,07,49,16.70
2016,04,28,07,50,16.70
2016,04,28,07,51,16.70
2016,04,28,07,52,16.70
2016,04,28,07,53,16.70
2016,04,28,07,54,16.70
2016,04,28,07,55,16.70
2016,04,28,07,56,16.80
2016,04,28,07,57,16.80
2016,04,28,07,58,16.80
2016,04,28,07,59,16.90
2016,04,28,08,00,16.90
2016,04,28,08,01,16.90
2016,04,28,08,02,17.00
2016,04,28,08,03,17.00
2016,04,28,08,04,17.00
2016,04,28,08,05,17.10
2016,04,28,08,06,17.20
2016,04,28,08,07,17.30
2016,04,28,08,08,17.50
2016,04,28,08,09,17.50
2016,04,28,08,10,17.60
2016,04,28,08,11,17.70
2016,04,28,08,12,17.80
2016,04,28,08,13,17.80
2016,04,28,08,14,17.90
2016,04,28,08,15,18.00
2016,04,28,08,16,18.10
2016,04,28,08,17,18.20
2016,04,28,08,18,18.30
2016,04,28,08,19,18.30
2016,04,28,08,20,18.30
2016,04,28,08,21,18.30
2016,04,28,08,22,18.30
2016,04,28,08,23,18.30
2016,04,28,08,24,18.30
2016,04,28,08,25,18.30
2016,04,28,08,26,18.40
2016,04,28,08,27,18.40
2016,04,28,08,28,18.50
2016,04,28,08,29,18.50
2016,04,28,08,30,18.50
2016,04,28,08,31,18.50
2016,04,28,08,32,18.40
2016,04,28,08,33,18.40
2016,04,28,08,34,18.30
2016,04,28,08,35,18.20
2016,04,28,08,36,18.20
2016,04,28,08,40,17.90
2016,04,28,08,41,17.80
2016,04,28,08,42,17.80
2016,04,28,08,43,17.80
2016,04,28,08,44,17.80
2016,04,28,08,45,17.80
2016,04,28,08,46,17.80
2016,04,28,08,47,17.80
2016,04,28,08,48,17.80
2016,04,28,08,49,17.80
2016,04,28,08,50,17.80
2016,04,28,08,51,17.70
2016,04,28,08,52,17.70
2016,04,28,08,53,17.70
2016,04,28,08,54,17.70
2016,04,28,08,55,17.70
2016,04,28,08,56,17.70
2016,04,28,08,57,17.60
2016,04,28,08,58,17.50
2016,04,28,08,59,17.40
2016,04,28,09,00,17.40
2016,04,28,09,01,17.30
2016,04,28,09,02,17.30
2016,04,28,09,03,17.30
2016,04,28,09,04,17.30
2016,04,28,09,05,17.30
2016,04,28,09,06,17.30
2016,04,28,09,07,17.20
2016,04,28,09,08,17.20
2016,04,28,09,09,17.20
2016,04,28,09,10,17.20
2016,04,28,09,11,17.20
2016,04,28,09,12,17.20
2016,04,28,09,13,17.20
2016,04,28,09,14,17.20
2016,04,28,09,15,17.20
2016,04,28,09,16,17.20
2016,04,28,09,17,17.20
2016,04,28,09,18,17.20
2016,04,28,09,19,17.20
2016,04,28,09,20,17.20
2016,04,28,09,21,17.20
2016,04,28,09,22,17.20
2016,04,28,09,23,17.20
2016,04,28,09,24,17.20
2016,04,28,09,25,17.20
2016,04,28,09,26,17.20
2016,04,28,09,27,17.20
2016,04,28,09,28,17.20
2016,04,28,09,29,17.20
2016,04,28,09,30,17.20
2016,04,28,09,31,17.30
2016,04,28,09,32,17.30
2016,04,28,09,33,17.30
2016,04,28,09,34,17.20
2016,04,28,09,35,17.20
2016,04,28,09,36,17.20
2016,04,28,09,37,17.20
2016,04,28,09,38,17.20
2016,04,28,09,39,17.20
2016,04,28,09,40,17.20
2016,04,28,09,41,17.00
2016,04,28,09,42,16.90
2016,04,28,09,43,16.70
2016,04,28,09,44,16.50
2016,04,28,09,45,16.40
2016,04,28,09,46,16.30
2016,04,28,09,47,16.20
2016,04,28,09,48,16.10
2016,04,28,09,49,15.90
2016,04,28,09,50,15.80
2016,04,28,09,51,15.70
2016,04,28,09,52,15.60
2016,04,28,09,53,15.50
2016,04,28,09,54,15.40
2016,04,28,09,55,15.40
2016,04,28,09,56,15.30
2016,04,28,09,57,15.30
2016,04,28,09,58,15.20
2016,04,28,09,59,15.20
2016,04,28,10,00,15.20
2016,04,28,10,01,15.20
2016,04,28,10,02,15.10
2016,04,28,10,03,15.10
2016,04,28,10,04,15.10
2016,04,28,10,05,15.00
2016,04,28,10,06,15.00
2016,04,28,10,07,14.90
2016,04,28,10,08,14.90
2016,04,28,10,09,14.80
2016,04,28,10,10,14.80
2016,04,28,10,11,14.80
2016,04,28,10,12,14.70
2016,04,28,10,13,14.70
2016,04,28,10,14,14.70
2016,04,28,10,15,14.60
2016,04,28,10,16,14.60
2016,04,28,10,17,14.50
2016,04,28,10,18,14.50
2016,04,28,10,19,14.40
2016,04,28,10,20,14.40
2016,04,28,10,21,14.40
2016,04,28,10,22,14.40
2016,04,28,10,23,14.40
2016,04,28,10,24,14.30
2016,04,28,10,25,14.30
2016,04,28,10,26,14.30
2016,04,28,10,27,14.30
2016,04,28,10,28,14.20
2016,04,28,10,29,14.20
2016,04,28,10,30,14.20
2016,04,28,10,31,14.30
2016,04,28,10,32,14.30
2016,04,28,10,33,14.20
2016,04,28,10,34,14.30
2016,04,28,10,35,14.30
2016,04,28,10,36,14.30
2016,04,28,10,37,14.30
2016,04,28,10,38,14.30
2016,04,28,10,39,14.30
2016,04,28,10,40,14.30
2016,04,28,10,41,14.40
2016,04,28,10,42,14.40
2016,04,28,10,43,14.40
2016,04,28,10,44,14.40
2016,04,28,10,45,14.40
2016,04,28,10,46,14.40
2016,04,28,10,47,14.50
2016,04,28,10,48,14.50
2016,04,28,10,49,14.50
2016,04,28,10,50,14.50
2016,04,28,10,51,14.50
2016,04,28,10,52,14.50
2016,04,28,10,53,14.50
2016,04,28,10,54,14.60
2016,04,28,10,55,14.60
2016,04,28,10,56,14.50
2016,04,28,10,57,14.50
2016,04,28,10,58,14.50
2016,04,28,10,59,14.50
2016,04,28,11,00,14.50
2016,04,28,11,01,14.60
2016,04,28,11,02,14.60
2016,04,28,11,03,14.60
2016,04,28,11,04,14.50
2016,04,28,11,05,14.50
2016,04,28,11,06,14.50
2016,04,28,11,07,14.50
2016,04,28,11,08,14.60
2016,04,28,11,09,14.60
2016,04,28,11,10,14.50
2016,04,28,11,11,14.50
2016,04,28,11,12,14.40
2016,04,28,11,13,14.40
2016,04,28,11,14,14.40
2016,04,28,11,15,14.40
2016,04,28,11,16,14.40
2016,04,28,11,17,14.30
2016,04,28,11,18,14.30
2016,04,28,11,19,14.40
2016,04,28,11,20,14.40
2016,04,28,11,21,14.40
2016,04,28,11,22,14.40
2016,04,28,11,23,14.50
2016,04,28,11,24,14.40
2016,04,28,11,25,14.50
2016,04,28,11,26,14.50
2016,04,28,11,27,14.50
2016,04,28,11,28,14.50
2016,04,28,11,29,14.50
2016,04,28,11,30,14.50
2016,04,28,11,31,14.50
2016,04,28,11,32,14.50
2016,04,28,11,33,14.50
2016,04,28,11,34,14.50
2016,04,28,11,35,14.40
2016,04,28,11,36,14.40
2016,04,28,11,37,14.40
2016,04,28,11,38,14.40
2016,04,28,11,39,14.40
2016,04,28,11,40,14.40
2016,04,28,11,41,14.40
2016,04,28,11,42,14.40
2016,04,28,11,43,14.40
2016,04,28,11,44,14.40
2016,04,28,11,45,14.40
2016,04,28,11,46,14.40
2016,04,28,11,47,14.40
2016,04,28,11,48,14.40
2016,04,28,11,49,14.40
2016,04,28,11,50,14.40
2016,04,28,11,51,14.40
2016,04,28,11,52,14.30
2016,04,28,11,53,14.30
2016,04,28,11,54,14.30
2016,04,28,11,55,14.30
2016,04,28,11,56,14.30
2016,04,28,11,57,14.20
2016,04,28,11,58,14.20
2016,04,28,11,59,14.20
2016,04,28,12,00,14.20
2016,04,28,12,01,14.20
2016,04,28,12,02,14.10
2016,04,28,12,03,14.10
2016,04,28,12,04,14.00
2016,04,28,12,05,14.00
2016,04,28,12,06,14.00
2016,04,28,12,07,14.00
2016,04,28,12,08,13.90
2016,04,28,12,09,13.90
2016,04,28,12,10,13.90
2016,04,28,12,11,13.90
2016,04,28,12,12,13.90
2016,04,28,12,13,13.90
2016,04,28,12,14,13.90
2016,04,28,12,15,13.90
2016,04,28,12,16,13.90
2016,04,28,12,17,14.00
2016,04,28,12,18,13.90
2016,04,28,12,19,13.90
2016,04,28,12,20,13.90
2016,04,28,12,21,13.90
2016,04,28,12,22,13.90
2016,04,28,12,23,13.90
2016,04,28,12,24,13.90
2016,04,28,12,25,13.90
2016,04,28,12,26,13.90
2016,04,28,12,27,13.90
2016,04,28,12,28,13.90
2016,04,28,12,29,13.90
2016,04,28,12,30,13.90
2016,04,28,12,31,13.90
2016,04,28,12,32,13.90
2016,04,28,12,33,13.80
2016,04,28,12,34,13.80
2016,04,28,12,35,13.80
2016,04,28,12,36,13.80
2016,04,28,12,37,13.80
2016,04,28,12,38,13.80
2016,04,28,12,39,13.80
2016,04,28,12,40,13.70
2016,04,28,12,41,13.70
2016,04,28,12,42,13.70
2016,04,28,12,43,13.70
2016,04,28,12,44,13.70
2016,04,28,12,45,13.70
2016,04,28,12,46,13.60
2016,04,28,12,47,13.60
2016,04,28,12,48,13.60
2016,04,28,12,49,13.60
2016,04,28,12,50,13.50
2016,04,28,12,51,13.50
2016,04,28,12,52,13.50
2016,04,28,12,53,13.60
2016,04,28,12,54,13.60
2016,04,28,12,55,13.60
2016,04,28,12,56,13.60
2016,04,28,12,57,13.60
2016,04,28,12,58,13.50
2016,04,28,12,59,13.60
2016,04,28,13,00,13.60
2016,04,28,13,01,13.50
2016,04,28,13,02,13.50
2016,04,28,13,03,13.50
2016,04,28,13,04,13.50
2016,04,28,13,05,13.50
2016,04,28,13,06,13.40
2016,04,28,13,07,13.40
2016,04,28,13,08,13.40
2016,04,28,13,09,13.40
2016,04,28,13,10,13.40
2016,04,28,13,11,13.40
2016,04,28,13,12,13.40
2016,04,28,13,13,13.40
2016,04,28,13,14,13.40
2016,04,28,13,15,13.40
2016,04,28,13,16,13.40
2016,04,28,13,17,13.30
2016,04,28,13,18,13.30
2016,04,28,13,19,13.30
2016,04,28,13,20,13.20
2016,04,28,13,21,13.20
2016,04,28,13,22,13.20
2016,04,28,13,23,13.20
2016,04,28,13,24,13.20
2016,04,28,13,25,13.10
2016,04,28,13,26,13.10
2016,04,28,13,27,13.00
2016,04,28,13,28,13.00
2016,04,28,13,29,12.90
2016,04,28,13,30,12.90
2016,04,28,13,31,12.80
2016,04,28,13,32,12.80
2016,04,28,13,33,12.80
2016,04,28,13,34,12.70
2016,04,28,13,35,12.70
2016,04,28,13,36,12.70
2016,04,28,13,37,12.70
2016,04,28,13,38,12.60
2016,04,28,13,39,12.60
2016,04,28,13,40,12.60
2016,04,28,13,41,12.60
2016,04,28,13,42,12.60
2016,04,28,13,43,12.60
2016,04,28,13,44,12.60
2016,04,28,13,45,12.60
2016,04,28,13,46,12.60
2016,04,28,13,47,12.50
2016,04,28,13,48,12.50
2016,04,28,13,49,12.50
2016,04,28,13,50,12.40
2016,04,28,13,51,12.40
2016,04,28,13,52,12.40
2016,04,28,13,53,12.30
2016,04,28,13,54,12.30
2016,04,28,13,55,12.30
2016,04,28,13,56,12.30
2016,04,28,13,57,12.30
2016,04,28,13,58,12.30
2016,04,28,13,59,12.40
2016,04,28,14,00,12.40
2016,04,28,14,01,12.40
2016,04,28,14,02,12.40
2016,04,28,14,03,12.40
2016,04,28,14,04,12.50
2016,04,28,14,05,12.50
2016,04,28,14,06,12.50
2016,04,28,14,07,12.50
2016,04,28,14,08,12.50
2016,04,28,14,09,12.50
2016,04,28,14,10,12.50
2016,04,28,14,11,12.60
2016,04,28,14,12,12.60
2016,04,28,14,13,12.60
2016,04,28,14,14,12.60
2016,04,28,14,15,12.60
2016,04,28,14,16,12.50
2016,04,28,14,17,12.50
2016,04,28,14,18,12.50
2016,04,28,14,19,12.50
2016,04,28,14,20,12.40
2016,04,28,14,21,12.40
2016,04,28,14,22,12.40
2016,04,28,14,23,12.40
2016,04,28,14,24,12.40
2016,04,28,14,25,12.40
2016,04,28,14,26,12.40
2016,04,28,14,27,12.40
2016,04,28,14,28,12.40
2016,04,28,14,29,12.40
2016,04,28,14,30,12.40
2016,04,28,14,31,12.40
2016,04,28,14,32,12.40
2016,04,28,14,33,12.40
2016,04,28,14,34,12.40
2016,04,28,14,35,12.40
2016,04,28,14,36,12.40
2016,04,28,14,37,12.40
2016,04,28,14,38,12.40
2016,04,28,14,39,12.40
2016,04,28,14,40,12.40
2016,04,28,14,41,12.40
2016,04,28,14,42,12.40
2016,04,28,14,43,12.40
2016,04,28,14,44,12.40
2016,04,28,14,45,12.40
2016,04,28,14,46,12.40
2016,04,28,14,47,12.40
2016,04,28,14,48,12.40
2016,04,28,14,49,12.40
2016,04,28,14,50,12.40
2016,04,28,14,51,12.40
2016,04,28,14,52,12.40
2016,04,28,14,53,12.40
2016,04,28,14,54,12.40
2016,04,28,14,55,12.30
2016,04,28,14,56,12.30
2016,04,28,14,57,12.30
2016,04,28,14,58,12.30
2016,04,28,14,59,12.30
2016,04,28,15,00,12.30
2016,04,28,15,01,12.30
2016,04,28,15,02,12.30
2016,04,28,15,03,12.30
2016,04,28,15,04,12.30
2016,04,28,15,05,12.20
2016,04,28,15,06,12.20
2016,04,28,15,07,12.20
2016,04,28,15,08,12.20
2016,04,28,15,09,12.20
2016,04,28,15,10,12.20
2016,04,28,15,11,12.20
2016,04,28,15,12,12.10
2016,04,28,15,13,12.10
2016,04,28,15,14,12.10
2016,04,28,15,15,12.10
2016,04,28,15,16,12.10
2016,04,28,15,17,12.10
2016,04,28,15,18,12.00
2016,04,28,15,19,12.00
2016,04,28,15,20,12.00
2016,04,28,15,21,12.00
2016,04,28,15,22,11.90
2016,04,28,15,23,11.90
2016,04,28,15,24,11.90
2016,04,28,15,25,11.90
2016,04,28,15,26,11.90
2016,04,28,15,27,11.90
2016,04,28,15,28,11.90
2016,04,28,15,29,11.90
2016,04,28,15,30,11.90
2016,04,28,15,31,11.80
2016,04,28,15,32,11.80
2016,04,28,15,33,11.80
2016,04,28,15,34,11.80
2016,04,28,15,35,11.70
2016,04,28,15,36,11.70
2016,04,28,15,37,11.70
2016,04,28,15,38,11.60
2016,04,28,15,39,11.60
2016,04,28,15,40,11.60
2016,04,28,15,41,11.60
2016,04,28,15,42,11.50
2016,04,28,15,43,11.50
2016,04,28,15,44,11.50
2016,04,28,15,45,11.40
2016,04,28,15,46,11.40
2016,04,28,15,47,11.40
2016,04,28,15,48,11.40
2016,04,28,15,49,11.40
2016,04,28,15,50,11.40
2016,04,28,15,51,11.30
2016,04,28,15,52,11.30
2016,04,28,15,53,11.30
2016,04,28,15,54,11.30
2016,04,28,15,55,11.30
2016,04,28,15,56,11.30
2016,04,28,15,57,11.20
2016,04,28,15,58,11.20
2016,04,28,15,59,11.20
2016,04,28,16,00,11.20
2016,04,28,16,01,11.20
2016,04,28,16,02,11.20
2016,04,28,16,03,11.20
2016,04,28,16,04,11.20
2016,04,28,16,05,11.10
2016,04,28,16,06,11.10
2016,04,28,16,07,11.10
2016,04,28,16,08,11.10
2016,04,28,16,09,11.10
2016,04,28,16,10,11.10
2016,04,28,16,11,11.00
2016,04,28,16,12,11.00
2016,04,28,16,13,11.00
2016,04,28,16,14,11.00
2016,04,28,16,15,10.90
2016,04,28,16,16,10.90
2016,04,28,16,17,10.90
2016,04,28,16,18,10.80
2016,04,28,16,19,10.80
2016,04,28,16,20,10.80
2016,04,28,16,21,10.80
2016,04,28,16,22,10.80
2016,04,28,16,23,10.70
2016,04,28,16,24,10.70
2016,04,28,16,25,10.70
2016,04,28,16,26,10.70
2016,04,28,16,27,10.70
2016,04,28,16,28,10.70
2016,04,28,16,29,10.60
2016,04,28,16,30,10.60
2016,04,28,16,31,10.60
2016,04,28,16,32,10.60
2016,04,28,16,33,10.60
2016,04,28,16,34,10.60
2016,04,28,16,35,10.50
2016,04,28,16,36,10.50
2016,04,28,16,37,10.50
2016,04,28,16,38,10.50
2016,04,28,16,39,10.50
2016,04,28,16,40,10.50
2016,04,28,16,41,10.40
2016,04,28,16,42,10.40
2016,04,28,16,43,10.40
2016,04,28,16,44,10.40
2016,04,28,16,45,10.40
2016,04,28,16,46,10.40
2016,04,28,16,47,10.40
2016,04,28,16,48,10.40
2016,04,28,16,49,10.40
2016,04,28,16,50,10.40
2016,04,28,16,51,10.40
2016,04,28,16,52,10.40
2016,04,28,16,53,10.40
2016,04,28,16,54,10.40
2016,04,28,16,55,10.40
2016,04,28,16,56,10.40
2016,04,28,16,57,10.40
2016,04,28,16,58,10.40
2016,04,28,16,59,10.40
2016,04,28,17,00,10.40
2016,04,28,17,01,10.40
2016,04,28,17,02,10.40
2016,04,28,17,03,10.40
2016,04,28,17,04,10.40
2016,04,28,17,05,10.40
2016,04,28,17,06,10.40
2016,04,28,17,07,10.40
2016,04,28,17,08,10.50
2016,04,28,17,09,10.50
2016,04,28,17,10,10.50
2016,04,28,17,11,10.40
2016,04,28,17,12,10.40
2016,04,28,17,13,10.30
2016,04,28,17,14,10.30
2016,04,28,17,15,10.20
2016,04,28,17,16,10.10
2016,04,28,17,17,10.00
2016,04,28,17,18,10.00
2016,04,28,17,19,9.90
2016,04,28,17,20,9.80
2016,04,28,17,21,9.70
2016,04,28,17,22,9.70
2016,04,28,17,23,9.60
2016,04,28,17,24,9.60
2016,04,28,17,25,9.50
2016,04,28,17,26,9.40
2016,04,28,17,27,9.40
2016,04,28,17,28,9.40